Weather History for KFDR - February, 2013

Change the Weather History Date:

Thursday, February 14, 2013

  Actual Average (KLTS) Record (KLTS)
Temperature  
Mean Temperature 48 °F -  
Max Temperature 64 °F 55 °F 81 °F (2015)
Min Temperature 32 °F 32 °F 31 °F (2014)
Degree Days  
Heating Degree Days 17    
Moisture  
Dew Point 32 °F    
Average Humidity 61    
Maximum Humidity 85    
Minimum Humidity 22    
Precipitation  
Precipitation 0.00 in - - ()
Sea Level Pressure  
Sea Level Pressure 30.02 in    
Wind  
Wind Speed 8 mph (NE)    
Max Wind Speed 22 mph    
Max Gust Speed 28 mph    
Visibility 10 miles    
Events      
Averages and records for this station are not official NWS values.
T = Trace of Precipitation, MM = Missing Value Source: NWS Daily Summary

Daily Weather History Graph

Daily Weather History Graph

Search for Another Location

Airport or City:

Trip Planner

Search our weather history database for the weather conditions in past years. The results will help you decide how hot, cold, wet, or windy it might be!

Date:

Astronomy

Feb. 14, 2013 Rise Set
Actual Time 7:21 AM CST 6:18 PM CST
Civil Twilight 6:56 AM CST 6:44 PM CST
Nautical Twilight 6:26 AM CST 7:14 PM CST
Astronomical Twilight 5:57 AM CST 7:43 PM CST
Moon 9:39 AM CST (2/14) 11:07 PM CST (2/14)
Length of Visible Light 11h 48m
Length of Day
10h 57m
Waxing Crescent, 22% of the Moon is Illuminated
Feb 14
Waxing Crescent
Feb 17
First Quarter
Feb 25
Full
Mar 4
Last Quarter
Mar 11
New

Hourly Weather History & Observations

Time (CST) Temp. Windchill Dew Point Humidity Pressure Visibility Wind Dir Wind Speed Gust Speed Precip Events Conditions
12:53 AM 37.0 °F 32.4 °F 32.0 °F 82% 30.00 in 10.0 mi NNE 5.8 mph - N/A   Clear
1:53 AM 37.0 °F 33.3 °F 30.9 °F 79% 29.99 in 10.0 mi NE 4.6 mph - N/A   Clear
2:53 AM 36.0 °F 31.1 °F 30.0 °F 79% 29.99 in 10.0 mi NNE 5.8 mph - N/A   Clear
3:53 AM 36.0 °F 28.5 °F 30.0 °F 79% 29.98 in 10.0 mi NNE 10.4 mph - N/A   Clear
4:53 AM 36.0 °F - 28.9 °F 76% 29.96 in 10.0 mi Calm Calm - N/A   Clear
5:53 AM 32.0 °F 26.4 °F 28.0 °F 85% 29.98 in 10.0 mi West 5.8 mph - N/A   Clear
6:53 AM 32.0 °F 25.6 °F 28.0 °F 85% 30.00 in 10.0 mi ENE 6.9 mph - N/A   Clear
7:53 AM 33.1 °F 26.9 °F 28.9 °F 85% 30.03 in 10.0 mi NNE 6.9 mph - N/A   Clear
8:53 AM 39.0 °F 35.7 °F 32.0 °F 76% 30.05 in 10.0 mi NNE 4.6 mph - N/A   Clear
9:53 AM 46.0 °F 43.9 °F 35.1 °F 66% 30.05 in 10.0 mi ENE 4.6 mph - N/A   Clear
10:53 AM 52.0 °F - 36.0 °F 54% 30.05 in 10.0 mi ENE 6.9 mph - N/A   Clear
11:53 AM 55.9 °F - 37.0 °F 49% 30.04 in 10.0 mi East 8.1 mph - N/A   Clear
12:53 PM 61.0 °F - 35.1 °F 38% 30.00 in 10.0 mi ENE 9.2 mph - N/A   Clear
1:53 PM 63.0 °F - 30.0 °F 29% 29.97 in 10.0 mi East 8.1 mph - N/A   Clear
2:53 PM 64.9 °F - 25.0 °F 22% 29.96 in 10.0 mi East 8.1 mph - N/A   Clear
3:53 PM 64.9 °F - 26.1 °F 23% 29.96 in 10.0 mi East 8.1 mph - N/A   Clear
4:53 PM 64.0 °F - 28.9 °F 27% 29.97 in 10.0 mi East 8.1 mph - N/A   Clear
5:53 PM 59.0 °F - 37.9 °F 46% 29.99 in 10.0 mi East 5.8 mph - N/A   Clear
6:53 PM 52.0 °F - 39.0 °F 61% 30.02 in 10.0 mi North 15.0 mph - N/A   Clear
7:53 PM 48.9 °F - 39.0 °F 69% 30.06 in 10.0 mi NNE 15.0 mph - N/A   Clear
8:53 PM 48.9 °F - 37.0 °F 64% 30.08 in 10.0 mi NNE 20.7 mph - N/A   Overcast
9:53 PM 48.9 °F - 35.1 °F 59% 30.11 in 10.0 mi NNE 18.4 mph - N/A   Mostly Cloudy
10:53 PM 48.0 °F - 34.0 °F 58% 30.14 in 10.0 mi North 21.9 mph 27.6 mph N/A   Overcast
11:53 PM 46.0 °F 38.3 °F 35.1 °F 66% 30.17 in 10.0 mi NNE 20.7 mph 27.6 mph N/A   Overcast